Clarksburg, WV

6:18 PM EDT on October 22, 2019 (GMT -0400)
Benedum

Weather History for KCKB - August, 2019

Change the Weather History Date:

Friday, August 30, 2019

  Actual Average Record
Temperature  
Mean Temperature 73 °F -  
Max Temperature 86 °F 82 °F 100 °F (1953)
Min Temperature 60 °F 58 °F 40 °F (1986)
Cooling Degree Days 8    
Growing Degree Days 23 (Base 50)    
Moisture  
Dew Point 60 °F    
Average Humidity 66    
Maximum Humidity 81    
Minimum Humidity 46    
Precipitation  
Precipitation 0.00 in - - ()
Sea Level Pressure  
Sea Level Pressure 30.07 in    
Wind  
Wind Speed 3 mph ()    
Max Wind Speed 10 mph    
Max Gust Speed -    
Visibility 10.0 miles    
Events      
Averages and records for this station are not official NWS values.
T = Trace of Precipitation, MM = Missing Value Source: Averaged Metar Reports

Daily Weather History Graph

Daily Weather History Graph

Search for Another Location

Airport or City:

Astronomy

Aug. 30, 2019 Rise Set
Actual Time 6:47 AM EDT 7:55 PM EDT
Civil Twilight 6:19 AM EDT 8:22 PM EDT
Nautical Twilight 5:46 AM EDT 8:55 PM EDT
Astronomical Twilight 5:12 AM EDT 9:29 PM EDT
Moon 6:46 AM EDT (8/30) 8:30 PM EDT (8/30)
Length of Visible Light 14h 02m
Length of Day
13h 07m
New Moon, 0% of the Moon is Illuminated
Aug 30
New Moon
Sep 5
First Quarter
Sep 14
Full
Sep 21
Last Quarter
Sep 28
New

Hourly Weather History & Observations

Time (EDT) Temp. Heat Index Dew Point Humidity Pressure Visibility Wind Dir Wind Speed Gust Speed Precip Events Conditions
12:53 AM 61.0 °F - 54.0 °F 78% 30.06 in 10.0 mi Calm Calm - N/A   Clear
1:53 AM 62.1 °F - 54.0 °F 75% 30.06 in 10.0 mi Calm Calm - N/A   Clear
2:53 AM 61.0 °F - 54.0 °F 78% 30.06 in 10.0 mi SSE 3.5 mph - N/A   Clear
3:53 AM 61.0 °F - 54.0 °F 78% 30.06 in 10.0 mi Calm Calm - N/A   Clear
4:53 AM 60.1 °F - 53.1 °F 78% 30.05 in 10.0 mi Calm Calm - N/A   Clear
5:53 AM 60.1 °F - 53.1 °F 78% 30.04 in 10.0 mi SSW 3.5 mph - N/A   Clear
6:53 AM 61.0 °F - 53.1 °F 75% 30.04 in 10.0 mi South 3.5 mph - N/A   Scattered Clouds
7:53 AM 64.0 °F - 55.9 °F 75% 30.07 in 10.0 mi SSW 4.6 mph - N/A   Overcast
8:53 AM 66.9 °F - 55.9 °F 68% 30.09 in 10.0 mi SSW 6.9 mph - N/A   Overcast
9:53 AM 70.0 °F - 57.0 °F 63% 30.10 in 10.0 mi South 4.6 mph - N/A   Overcast
10:53 AM 75.0 °F - 59.0 °F 57% 30.10 in 10.0 mi WSW 9.2 mph - N/A   Mostly Cloudy
11:53 AM 78.1 °F - 60.1 °F 54% 30.10 in 10.0 mi SSW 8.1 mph - N/A   Partly Cloudy
12:53 PM 80.1 °F 81.1 °F 61.0 °F 52% 30.08 in 10.0 mi SSW 10.4 mph - N/A   Scattered Clouds
1:53 PM 82.0 °F 83.1 °F 63.0 °F 52% 30.07 in 10.0 mi SSW 10.4 mph - N/A   Clear
2:53 PM 84.9 °F 86.6 °F 64.9 °F 51% 30.06 in 10.0 mi WSW 8.1 mph - N/A   Clear
3:53 PM 86.0 °F 87.6 °F 64.9 °F 49% 30.04 in 10.0 mi WSW 10.4 mph - N/A   Clear
4:53 PM 86.0 °F 86.8 °F 63.0 °F 46% 30.05 in 10.0 mi WNW 8.1 mph - N/A   Partly Cloudy
5:53 PM 84.9 °F 86.1 °F 64.0 °F 49% 30.04 in 10.0 mi West 5.8 mph - N/A   Partly Cloudy
6:53 PM 82.0 °F 83.1 °F 63.0 °F 52% 30.06 in 10.0 mi West 4.6 mph - N/A   Clear
7:53 PM 78.1 °F - 64.0 °F 62% 30.08 in 10.0 mi SSW 3.5 mph - N/A   Clear
8:53 PM 73.9 °F - 64.9 °F 73% 30.09 in 10.0 mi Calm Calm - N/A   Clear
9:53 PM 73.9 °F - 64.9 °F 73% 30.11 in 10.0 mi Calm Calm - N/A   Clear
10:53 PM 72.0 °F - 64.9 °F 78% 30.12 in 10.0 mi Calm Calm - N/A   Scattered Clouds
11:53 PM 72.0 °F - 66.0 °F 81% 30.12 in 10.0 mi Calm Calm - N/A   Mostly Cloudy